[[{"header":{"parameterUnit":"m.s-1","parameterCategory":1,"la1":30.2991,"la2":30.254,"lo1":-89.0895,"lo2":-89.0444,"dy":0.0017,"dx":0.0017,"nx":28,"ny":28,"refTime":"2024-04-20T09:00:00:Z","depth":0,"parameterNumber":2,"parameterNumberName":"U-component_of_WINDS"},"data":[0,0,0,0,0,0,0,0,0,0,0,0,0,0,0,0,0,0,0,0,0,0,0,0,0,0,0,0,0,0,0,0,0,0,0,0,0,0,0,0,0,0,0,0,0,0,0,0,0,0,0,0,0,0,0,0,0,0,-0.3589,-0.3589,0,-0.3562,-0.3561,-0.3561,-0.3549,-0.3549,-0.3549,-0.3549,-0.352,-0.352,-0.3519,0,0,0,0,0,0,0,0,0,0,0,0,0,-0.3632,-0.3632,-0.3589,-0.3589,-0.3589,-0.3562,-0.3561,-0.3561,-0.3549,-0.3549,-0.3549,-0.3549,-0.3521,-0.352,-0.3519,0,0,0,0,0,0,0,0,0,0,0,0,0,-0.361,-0.3631,-0.3589,-0.3579,-0.3578,-0.3562,-0.3561,-0.3561,-0.3549,-0.3549,-0.3549,-0.3549,-0.3521,-0.352,-0.3519,-0.3511,0,0,-0.3515,-0.3515,0,0,0,0,0,0,0,0,-0.3611,-0.3609,-0.3581,-0.358,-0.3579,-0.3559,-0.3566,-0.3544,-0.3549,-0.356,-0.3549,-0.3549,-0.3533,-0.3531,-0.3526,-0.3509,-0.3508,-0.3515,-0.3514,-0.3514,-0.3513,0,0,0,0,0,0,0,-0.3613,-0.361,-0.3578,-0.3581,-0.3579,-0.3576,-0.3573,-0.3562,-0.3547,-0.3559,-0.3558,-0.3555,-0.3532,-0.3527,-0.3525,-0.3508,-0.3515,-0.3514,-0.3513,-0.3513,-0.3484,-0.3484,0,0,0,0,0,0,-0.3616,-0.3611,-0.3579,-0.3578,-0.3595,-0.3576,-0.3572,-0.3565,-0.3547,-0.3544,-0.3555,-0.3554,-0.3529,-0.3526,-0.3524,-0.3514,-0.3514,-0.3513,-0.3512,-0.3484,-0.3484,-0.3484,0,0,0,0,0,0,-0.3617,-0.3613,-0.358,-0.3594,-0.359,-0.3575,-0.3567,-0.3564,-0.3559,-0.3544,-0.3541,-0.3552,-0.3529,-0.3526,-0.3514,-0.3513,-0.3512,-0.3511,-0.3484,-0.3484,-0.3484,-0.3493,0,0,0,0,0,0,-0.3618,-0.3614,-0.361,-0.3594,-0.3589,-0.3571,-0.3567,-0.3564,-0.3557,-0.3556,-0.354,-0.3537,-0.3529,-0.3516,-0.3513,-0.3511,-0.351,-0.3484,-0.3484,-0.3484,-0.3493,-0.3493,-0.3494,0,0,0,0,0,-0.362,-0.3614,-0.361,-0.3606,-0.3584,-0.3571,-0.3568,-0.3558,-0.3557,-0.3553,-0.3544,-0.3538,-0.3513,-0.3515,-0.3511,-0.3509,-0.3484,-0.3484,-0.3484,-0.3493,-0.3493,-0.3494,0,0,0,0,0,0,-0.363,-0.3611,-0.3607,-0.3595,-0.3585,-0.3569,-0.3564,-0.3559,-0.3548,-0.3548,-0.3536,-0.3532,-0.3522,-0.3514,-0.3517,-0.3501,-0.3498,-0.3498,-0.3506,-0.3506,-0.3507,-0.3509,-0.3509,0,0,0,0,0,-0.3631,-0.3621,-0.3606,-0.3597,-0.3592,-0.3579,-0.3573,-0.3566,-0.3555,-0.355,-0.3539,-0.3529,-0.3518,-0.3512,-0.3502,-0.3492,-0.3488,-0.3488,-0.3489,-0.3489,-0.3489,-0.3483,-0.3483,-0.3484,-0.3484,-0.3484,0,0,-0.3632,-0.3621,-0.3616,-0.3599,-0.359,-0.3581,-0.3575,-0.3566,-0.3559,-0.3548,-0.3537,-0.3529,-0.3516,-0.3506,-0.3501,-0.3499,-0.3488,-0.3489,-0.3489,-0.3489,-0.3483,-0.3483,-0.3483,-0.3483,-0.3483,-0.3484,0,0,-0.3631,-0.3621,-0.3613,-0.3604,-0.3591,-0.3582,-0.3581,-0.3566,-0.356,-0.3549,-0.3541,-0.3533,-0.3515,-0.3507,-0.35,-0.3496,-0.3491,-0.3493,-0.3496,-0.3491,-0.3491,-0.3491,-0.349,-0.3489,-0.3493,-0.3493,-0.3493,0,-0.3635,-0.362,-0.361,-0.3601,-0.3594,-0.3584,-0.3576,-0.3568,-0.3552,-0.3548,-0.3546,-0.3525,-0.3516,-0.3503,-0.3503,-0.3497,-0.3495,-0.3495,-0.3492,-0.3491,-0.3491,-0.349,-0.349,-0.3493,-0.3493,-0.3493,-0.3493,0,-0.3626,-0.3616,-0.3611,-0.3596,-0.3589,-0.358,-0.3569,-0.3563,-0.3557,-0.3549,-0.3538,-0.3526,-0.3514,-0.3511,-0.3505,-0.3498,-0.3497,-0.3494,-0.3491,-0.3492,-0.3491,-0.349,-0.3494,-0.3494,-0.3494,-0.3494,0,0,-0.3629,-0.3609,-0.3607,-0.3601,-0.3586,-0.3578,-0.357,-0.3558,-0.3553,-0.3542,-0.3535,-0.3521,-0.3518,-0.3511,-0.3504,-0.35,-0.3498,-0.3497,-0.3496,-0.3498,-0.3491,-0.3493,-0.3493,-0.3495,-0.3494,-0.3494,-0.3492,0,-0.3626,-0.361,-0.36,-0.3589,-0.358,-0.3571,-0.3564,-0.3554,-0.3547,-0.3539,-0.353,-0.3521,-0.3517,-0.3513,-0.3508,-0.3499,-0.3497,-0.3499,-0.3488,-0.3488,-0.3492,-0.3492,-0.3495,-0.3493,-0.3491,-0.3491,-0.3491,0,-0.3619,-0.3609,-0.3596,-0.3583,-0.3579,-0.3573,-0.3561,-0.3554,-0.3543,-0.3538,-0.353,-0.3523,-0.3514,-0.3513,-0.3501,-0.3503,-0.3498,-0.3493,-0.3492,-0.3491,-0.3489,-0.3491,-0.3492,-0.3492,-0.349,-0.349,-0.349,0,-0.3623,-0.3607,-0.3597,-0.3592,-0.3576,-0.3572,-0.3565,-0.3554,-0.3548,-0.3538,-0.3534,-0.3523,-0.3518,-0.351,-0.3501,-0.35,-0.349,-0.3487,-0.3486,-0.3486,-0.3484,-0.3484,-0.3484,-0.348,-0.348,-0.348,-0.348,0,-0.362,-0.3613,-0.3599,-0.3593,-0.3585,-0.3575,-0.3567,-0.3559,-0.355,-0.3543,-0.3535,-0.3528,-0.3517,-0.3509,-0.3502,-0.3493,-0.349,-0.3486,-0.3485,-0.3487,-0.3488,-0.3484,-0.3484,-0.348,-0.348,-0.348,-0.348,0,-0.3624,-0.3614,-0.3603,-0.3589,-0.3585,-0.358,-0.3568,-0.3562,-0.3555,-0.3546,-0.3543,-0.3531,-0.3522,-0.3512,-0.3499,-0.3494,-0.3486,-0.3484,-0.349,-0.3489,-0.3488,-0.3488,-0.3486,-0.3485,-0.3482,-0.3482,-0.3482,0,-0.3622,-0.3616,-0.3602,-0.3597,-0.359,-0.3582,-0.3576,-0.3566,-0.3559,-0.3547,-0.3543,-0.3533,-0.3524,-0.351,-0.35,-0.3491,-0.3488,-0.3487,-0.3486,-0.3489,-0.3488,-0.3489,-0.3488,-0.3488,-0.3488,-0.3488,-0.3488,0,-0.3621,-0.3617,-0.3608,-0.3598,-0.3591,-0.3582,-0.3573,-0.3569,-0.3558,-0.3551,-0.3542,-0.3535,-0.3523,-0.3513,-0.3502,-0.3495,-0.349,-0.3489,-0.3488,-0.349,-0.3494,-0.3493,-0.3491,-0.3489,-0.3489,-0.3489,-0.3489,-0.3488,-0.3622,-0.3617,-0.3606,-0.3597,-0.359,-0.3582,-0.3576,-0.3568,-0.356,-0.3548,-0.3543,-0.3534,-0.3524,-0.3509,-0.3502,-0.3495,-0.3493,-0.3492,-0.3492,-0.3492,-0.3493,-0.3496,-0.3493,-0.3493,-0.3493,-0.3493,-0.3493,0,-0.3621,-0.3614,-0.3606,-0.3594,-0.3587,-0.3582,-0.3573,-0.3567,-0.3559,-0.355,-0.3542,-0.3531,-0.3522,-0.3512,-0.3503,-0.3499,-0.3496,-0.3497,-0.3497,-0.3496,-0.3494,-0.3496,-0.3499,-0.3499,-0.3499,-0.3499,-0.3499,-0.3499,-0.362,-0.3611,-0.3606,-0.3593,-0.3586,-0.3577,-0.3572,-0.3565,-0.3558,-0.3546,-0.3539,-0.3532,-0.3523,-0.3513,-0.3505,-0.3502,-0.3499,-0.35,-0.3497,-0.3496,-0.3495,-0.3495,-0.3497,-0.35,-0.35,-0.3499,-0.3499,-0.3499]},{"header":{"parameterUnit":"m.s-1","parameterCategory":1,"la1":30.2991,"la2":30.254,"lo1":-89.0895,"lo2":-89.0444,"dy":0.0017,"dx":0.0017,"nx":28,"ny":28,"refTime":"2024-04-20T09:00:00:Z","depth":0,"parameterNumber":3,"parameterNumberName":"V-component_of_WINDS"},"data":[0,0,0,0,0,0,0,0,0,0,0,0,0,0,0,0,0,0,0,0,0,0,0,0,0,0,0,0,0,0,0,0,0,0,0,0,0,0,0,0,0,0,0,0,0,0,0,0,0,0,0,0,0,0,0,0,0,0,4.4013,4.4012,0,4.3993,4.3992,4.3992,4.3981,4.3981,4.3981,4.3981,4.3956,4.3955,4.3955,0,0,0,0,0,0,0,0,0,0,0,0,0,4.4038,4.4037,4.4013,4.4012,4.4012,4.3993,4.3992,4.3992,4.3981,4.3981,4.3981,4.3981,4.3956,4.3955,4.3955,0,0,0,0,0,0,0,0,0,0,0,0,0,4.4023,4.4037,4.4013,4.4004,4.4003,4.3993,4.3992,4.3992,4.3981,4.3981,4.3981,4.398,4.3956,4.3955,4.3954,4.395,0,0,4.3952,4.3951,0,0,0,0,0,0,0,0,4.4024,4.4022,4.4006,4.4005,4.4004,4.3989,4.3992,4.3978,4.3981,4.3989,4.3981,4.398,4.3967,4.3965,4.3961,4.3949,4.3948,4.3952,4.3951,4.3951,4.395,0,0,0,0,0,0,0,4.4025,4.4023,4.4005,4.4005,4.4004,4.4,4.3998,4.3989,4.3978,4.3988,4.3987,4.3985,4.3966,4.3962,4.396,4.3947,4.3952,4.3951,4.395,4.395,4.3931,4.3931,0,0,0,0,0,0,4.4028,4.4024,4.4005,4.4004,4.4014,4.4,4.3998,4.3994,4.3978,4.3976,4.3986,4.3985,4.3964,4.3962,4.396,4.3954,4.3951,4.395,4.3949,4.3931,4.3931,4.3931,0,0,0,0,0,0,4.4028,4.4026,4.4006,4.4014,4.4011,4.4,4.3995,4.3993,4.3989,4.3976,4.3974,4.3984,4.3964,4.3961,4.3953,4.3953,4.3949,4.3948,4.3931,4.3931,4.3931,4.3943,0,0,0,0,0,0,4.4029,4.4027,4.4025,4.4014,4.4011,4.4001,4.3995,4.3993,4.3988,4.3988,4.3974,4.3972,4.3963,4.3954,4.3952,4.3952,4.3948,4.3931,4.3931,4.3931,4.3942,4.3943,4.3944,0,0,0,0,0,4.403,4.4028,4.4025,4.4023,4.4009,4.4001,4.3999,4.399,4.3988,4.3987,4.3979,4.3972,4.3954,4.3954,4.3951,4.395,4.3931,4.3931,4.3931,4.3942,4.3943,4.3944,0,0,0,0,0,0,4.4038,4.4026,4.4023,4.4017,4.401,4.3999,4.3996,4.3992,4.3984,4.3983,4.3972,4.3969,4.3962,4.3955,4.3956,4.3946,4.3941,4.3941,4.3951,4.3951,4.3952,4.3954,4.3947,0,0,0,0,0,4.4039,4.4035,4.4024,4.402,4.4017,4.4007,4.4003,4.3998,4.399,4.3986,4.3977,4.3968,4.3961,4.3955,4.3947,4.3941,4.3938,4.3939,4.394,4.3941,4.3941,4.3938,4.3939,4.3932,4.3932,4.3932,0,0,4.4041,4.4034,4.4032,4.4022,4.4015,4.401,4.4005,4.3999,4.3995,4.3985,4.3977,4.3971,4.396,4.3953,4.395,4.3947,4.3942,4.3941,4.3942,4.3941,4.3938,4.3939,4.394,4.3932,4.3932,4.3932,0,0,4.4043,4.4037,4.4034,4.4028,4.402,4.4014,4.4013,4.4002,4.3998,4.3991,4.3984,4.3978,4.3965,4.3958,4.3953,4.3954,4.3948,4.3951,4.3956,4.3953,4.3954,4.3954,4.3955,4.3956,4.3951,4.3951,4.3951,0,4.4046,4.4039,4.4032,4.4028,4.4024,4.4016,4.4012,4.4007,4.3996,4.3993,4.399,4.3975,4.3967,4.3959,4.396,4.3956,4.3954,4.3953,4.3954,4.3955,4.3955,4.3956,4.3956,4.3952,4.3951,4.3951,4.3951,0,4.4044,4.4039,4.4037,4.4029,4.4025,4.402,4.4012,4.4009,4.4004,4.3998,4.3991,4.3982,4.3973,4.397,4.3965,4.3962,4.3961,4.3957,4.3952,4.3956,4.3957,4.3957,4.3952,4.3952,4.3952,4.3952,0,0,4.4048,4.4038,4.4037,4.4034,4.4025,4.4021,4.4016,4.4009,4.4007,4.3999,4.3995,4.3985,4.3982,4.3976,4.397,4.3968,4.397,4.3964,4.3963,4.3966,4.3968,4.3972,4.3972,4.3967,4.3967,4.3967,4.3969,0,4.4049,4.4042,4.4037,4.4032,4.4028,4.4021,4.4018,4.4011,4.4006,4.4001,4.3994,4.3988,4.3984,4.398,4.3978,4.3971,4.3971,4.397,4.3962,4.3962,4.3966,4.3972,4.3976,4.3979,4.3969,4.3969,4.3969,0,4.4048,4.4044,4.4039,4.4032,4.403,4.4027,4.4021,4.4016,4.4009,4.4005,4.4,4.3994,4.3989,4.3986,4.3979,4.3978,4.3975,4.3971,4.3971,4.397,4.3966,4.3972,4.3979,4.398,4.397,4.397,4.397,0,4.4053,4.4045,4.4042,4.4039,4.4031,4.4029,4.4025,4.4018,4.4015,4.4009,4.4006,4.3999,4.3995,4.399,4.3982,4.398,4.3976,4.3972,4.3973,4.3973,4.3972,4.3972,4.398,4.3969,4.3969,4.3969,4.3969,0,4.4054,4.4052,4.4044,4.4042,4.404,4.4033,4.403,4.4025,4.402,4.4016,4.401,4.4006,4.3996,4.3992,4.3985,4.3981,4.3979,4.3976,4.3974,4.3977,4.3977,4.3974,4.3974,4.397,4.397,4.397,4.3969,0,4.4059,4.4054,4.405,4.4043,4.4041,4.404,4.4033,4.4031,4.4026,4.4022,4.402,4.4012,4.4007,4.3999,4.399,4.3986,4.3983,4.398,4.3986,4.3985,4.3987,4.3987,4.3993,4.3993,4.3982,4.3982,4.3983,0,4.406,4.4059,4.4052,4.405,4.4047,4.4044,4.4041,4.4035,4.4032,4.4025,4.4023,4.4018,4.4013,4.4005,4.3997,4.3991,4.3988,4.3991,4.3987,4.399,4.3989,4.399,4.399,4.3991,4.3992,4.3992,4.3992,0,4.4063,4.4061,4.4058,4.4055,4.4052,4.4048,4.4044,4.4043,4.4035,4.4032,4.4028,4.4024,4.4017,4.4012,4.4005,4.4,4.3995,4.3993,4.3993,4.3996,4.4,4.3999,4.3989,4.3993,4.3993,4.3993,4.3993,4.3993,4.4067,4.4065,4.4061,4.4058,4.4055,4.4052,4.405,4.4046,4.4042,4.4037,4.4033,4.4029,4.4023,4.4014,4.401,4.4006,4.4003,4.4003,4.4003,4.4003,4.4005,4.4001,4.4004,4.4004,4.4004,4.4004,4.4004,0,4.407,4.4068,4.4065,4.4061,4.4058,4.4055,4.4051,4.4049,4.4046,4.4042,4.4038,4.4033,4.4029,4.4022,4.4017,4.4015,4.4013,4.4014,4.4014,4.4013,4.4007,4.4008,4.4016,4.4016,4.4016,4.4016,4.4016,4.4016,4.4071,4.407,4.4068,4.4064,4.4062,4.4059,4.4057,4.4054,4.4051,4.4046,4.4043,4.404,4.4034,4.4029,4.4025,4.4023,4.4021,4.4024,4.4021,4.4015,4.4014,4.4013,4.4013,4.4023,4.4023,4.4028,4.4028,4.4028]}]]